User: anonymous   Login
Location: Unspecified
(0.0000°N, 0.0000°E)
Time: 00:20:47
(UTC+02:00)
Language:

Cosmos 2263 Rocket - Orbit

View from above orbital plane
View from above orbital plane
View from above satellite
View from above satellite

Ground track
Ground track

The orbit data is extracted from the following two-line orbital elements,

1 22803U 93059B   16206.47899765 -.00000139  00000-0 -45205-4 0  9996
2 22803  70.9883 219.9800 0016755 172.5623 187.5753 14.16748785181862
Epoch (UTC): 24 July 2016 11:29:45
Eccentricity: 0.0016755
inclination: 70.9883°
perigee height: 824 km
apogee height: 848 km
right ascension of ascending node: 219.9800°
argument of perigee: 172.5623°
revolutions per day: 14.16748785
mean anomaly at epoch: 187.5753°
orbit number at epoch: 18186

The dashed part of the orbit path shows where the satellite is in the earth's shadow,  

DLR